CAPE
789 713 457 457 469 376 268 197 177 168 186 210 181 125 78 2 0 0 0 0 0 0 0 0 0 0 0 0 146 26 9 73 113 51 26 21 1 0 0 0 0 0 0
999 769 506 468 468 444 412 332 349 329 284 205 148 81 0 0 0 0 0 0 0 0 0 0 0 0 0 0 22 38 21 2 1 2 0 0 0 0 0 0 0 0 0
1116 809 627 468 482 433 442 444 370 299 177 73 29 0 0 0 0 0 0 0 0 0 0 24 166 117 0 0 116 112 0 0 0 0 0 0 0 0 0 0 0 0 0
1129 838 687 617 580 590 560 480 348 200 60 38 20 0 0 6 9 0 0 0 0 0 0 0 9 77 9 130 58 0 0 0 0 0 0 0 0 0 0 0 0 0 0
1127 908 694 613 636 598 560 497 352 133 65 39 27 13 17 29 36 4 0 0 0 0 0 0 0 0 0 0 0 0 0 0 0 0 0 0 0 0 0 0 0 0 1
1078 805 687 524 447 593 686 512 255 139 62 53 66 54 43 76 34 14 1 2 0 0 0 0 0 0 0 0 0 0 0 0 0 0 0 0 0 0 0 0 0 0 1
958 717 524 335 373 813 709 461 184 170 94 85 114 103 100 88 37 12 3 0 0 0 0 0 0 0 0 0 0 0 0 0 0 0 0 0 0 0 0 0 0 0 0
736 456 338 173 261 231 154 290 233 204 105 154 135 165 132 67 10 0 0 0 0 0 0 0 0 0 0 0 0 0 0 0 0 0 0 0 0 0 0 0 0 0 0
310 149 100 102 61 49 55 220 191 126 148 75 134 147 96 31 4 0 0 0 0 0 0 0 0 0 0 0 0 0 0 0 0 0 0 0 0 0 0 0 0 0 0
78 0 22 41 28 33 76 148 176 100 41 33 85 64 20 6 0 0 0 0 0 0 0 0 0 0 0 0 0 0 0 0 0 0 0 0 0 1 0 0 0 0 0
2 2 1 4 18 0 11 184 167 70 24 57 53 19 3 0 0 0 0 0 0 0 0 0 0 0 0 0 0 0 0 0 0 0 0 0 0 5 2 0 0 0 0
1 2 0 0 0 17 160 135 73 46 30 30 10 0 0 0 0 0 0 0 0 0 0 0 0 0 0 0 0 0 0 0 0 0 0 0 0 0 1 0 0 0 0
0 0 0 0 0 120 213 122 51 16 10 11 0 0 0 0 0 0 0 0 0 0 0 0 0 0 0 0 0 0 0 0 0 0 0 0 0 0 4 0 0 0 0
1 0 0 2 56 211 138 60 20 0 0 0 0 0 0 0 0 0 0 0 0 0 0 0 0 0 0 0 0 0 0 0 0 0 0 0 0 0 2 0 3 4 1
0 14 3 70 161 178 67 20 4 0 0 0 0 0 16 6 0 0 0 0 0 0 0 0 0 0 0 0 0 0 0 0 0 0 0 0 0 0 0 2 1 6 3
34 27 21 68 167 151 8 0 0 0 0 0 0 1 15 2 0 0 0 0 0 0 0 0 0 0 0 0 0 0 0 0 0 0 0 0 0 0 0 0 0 0 0
57 94 52 145 153 102 0 0 0 0 10 120 225 109 4 0 0 0 0 0 0 0 0 0 0 0 0 0 0 0 0 0 0 0 0 0 0 0 0 0 0 0 0
28 78 165 180 144 50 0 0 0 4 98 144 66 1 0 0 0 0 0 0 0 0 0 0 0 0 0 0 0 0 0 0 0 0 0 0 0 0 0 0 0 0 0
66 103 151 187 166 11 0 0 0 27 24 0 0 0 0 0 0 0 0 0 0 0 0 0 0 0 0 0 0 0 0 0 0 0 0 0 0 0 0 0 0 0 0
32 91 137 153 15 0 0 0 0 0 0 0 0 0 0 0 0 0 0 0 0 0 0 0 0 0 0 0 0 0 0 0 0 0 0 0 0 0 0 0 0 0 0
4 68 84 138 0 0 0 0 0 0 0 0 0 0 0 0 0 0 0 0 0 0 0 0 0 0 0 0 0 0 0 0 0 0 0 0 0 0 0 0 0 0 0
13 104 79 94 26 1 13 1 0 0 0 0 0 0 0 0 0 0 0 0 0 0 0 0 0 0 0 0 0 0 0 0 0 0 0 0 0 0 0 0 0 0 0
110 135 95 54 38 1 0 0 0 0 0 0 0 0 0 0 0 0 0 0 0 0 0 0 0 0 0 0 0 0 0 0 0 0 0 0 0 0 0 0 0 0 0
60 44 26 1 0 0 0 0 0 0 0 0 0 0 0 0 0 0 0 0 0 0 0 0 0 0 0 0 0 0 0 0 0 0 0 0 0 0 0 0 0 0 0
42 43 27 5 0 0 0 0 0 0 0 0 0 0 0 0 0 0 0 0 0 0 0 0 0 0 0 0 0 0 0 0 0 0 0 0 0 0 0 0 0 0 0
3 12 9 0 0 0 0 0 0 0 0 0 0 0 0 0 0 0 0 0 0 0 0 0 0 0 0 0 0 0 0 0 0 0 0 0 0 0 0 0 0 0 0
CIN
-50 -28 -57 -34 -29 -56 -99 -103 -84 -79 -83 -90 -106 -112 -122 -31 0 0 0 0 0 0 0 0 0 0 0 0 -17 -18 -15 -11 -6 -6 -7 -7 0 0 0 0 0 0 0
-36 -30 -31 -28 -25 -51 -64 -59 -40 -47 -73 -97 -110 -129 0 0 0 0 0 0 0 0 0 0 0 0 0 0 -28 -21 -31 -4 -3 -2 0 0 0 0 0 0 0 0 0
-1 -31 -26 -34 -37 -63 -59 -47 -50 -67 -131 -184 -197 -18 0 0 0 0 0 0 0 0 0 -46 -33 -52 0 0 -26 -24 0 0 0 0 0 0 0 0 0 0 0 0 0
-2 -21 -11 -5 -17 -25 -29 -30 -56 -75 -222 -263 -291 -12 0 -231 -221 0 0 0 0 0 0 0 -51 -52 -18 -28 -17 0 0 0 0 0 0 0 0 0 0 0 0 0 0
-1 -2 -1 -2 -1 -9 -14 -19 -57 -125 -214 -290 -266 -251 -208 -223 -207 -259 0 0 0 0 0 0 0 0 0 0 0 0 0 0 0 0 0 0 0 0 0 0 0 0 0
-1 -10 -3 -13 -25 -20 -23 -51 -99 -112 -240 -290 -211 -184 -175 -147 -230 -257 -71 -150 0 0 0 0 0 0 0 0 0 0 0 0 0 0 0 0 0 0 0 0 0 0 0
-1 -9 -13 -26 -19 -1 -15 -40 -151 -134 -227 -224 -169 -136 -136 -169 -270 -303 -325 0 0 0 0 0 0 0 0 0 0 0 0 0 0 0 0 0 0 0 0 0 0 0 0
-12 -21 -8 -20 -10 -14 -8 -31 -111 -114 -212 -126 -140 -91 -126 -203 -335 -1 0 0 0 0 0 0 0 0 0 0 0 0 0 0 0 0 0 0 0 0 0 0 0 0 0
-49 -30 -7 -13 -27 -45 -25 -55 -114 -160 -130 -167 -109 -102 -156 -301 -422 0 0 0 0 0 0 0 0 0 0 0 0 0 0 0 0 0 0 0 0 0 0 0 0 0 0
-44 0 -54 -15 -21 -15 -21 -31 -98 -135 -176 -195 -149 -208 -363 -447 0 0 0 0 0 0 0 0 0 0 0 0 0 0 0 0 0 0 0 0 0 0 0 0 0 0 0
0 0 0 -1 -38 0 -24 -43 -75 -134 -190 -180 -216 -357 -436 -180 0 0 0 0 0 0 0 0 0 0 0 0 0 0 0 0 0 0 0 0 0 -1 0 0 0 0 0
0 0 0 0 0 -94 -27 -80 -143 -177 -270 -315 -375 -13 0 0 0 0 0 0 0 0 0 0 0 0 0 0 0 0 0 0 0 0 0 0 0 0 0 0 0 0 0
0 0 0 0 0 -33 -11 -68 -147 -302 -410 -397 -199 0 0 0 0 0 0 0 0 0 0 0 0 0 0 0 0 0 0 0 0 0 0 0 0 0 0 0 0 0 0
0 0 0 -10 -42 -19 -44 -125 -224 0 0 0 0 0 0 0 0 0 0 0 0 0 0 0 0 0 0 0 0 0 0 0 0 0 0 0 0 0 -1 -1 -1 0 -1
0 -91 -57 -42 -34 -49 -111 -170 -197 0 0 0 0 0 -221 -235 0 0 0 0 0 0 0 0 0 0 0 0 0 0 0 0 0 0 0 0 0 0 0 -1 -1 -1 0
-115 -94 -154 -60 -31 -52 -193 0 0 0 0 0 0 -185 -133 -91 0 0 0 0 0 0 0 0 0 0 0 0 0 0 0 0 0 0 0 0 0 0 0 0 0 0 0
-106 -83 -148 -38 -49 -78 0 0 0 0 -179 -68 -64 -104 -133 0 0 0 0 0 0 0 0 0 0 0 0 0 0 0 0 0 0 0 0 0 0 0 0 0 0 0 0
-149 -130 -44 -29 -39 -123 0 0 0 -181 -83 -72 -101 -10 0 0 0 0 0 0 0 0 0 0 0 0 0 0 0 0 0 0 0 0 0 0 0 0 0 0 0 0 0
-113 -94 -71 -69 -63 -212 0 0 -61 -141 -128 0 0 0 0 0 0 0 0 0 0 0 0 0 0 0 0 0 0 0 0 0 0 0 0 0 0 0 0 0 0 0 0
-159 -119 -94 -91 -211 0 0 0 0 0 0 0 0 0 0 0 0 0 0 0 0 0 0 0 0 0 0 0 0 0 0 0 0 0 0 0 0 0 0 0 0 0 0
-117 -184 -166 -147 -1 0 0 0 0 0 0 0 0 0 0 0 0 0 0 0 0 0 0 0 0 0 0 0 0 0 0 0 0 0 0 0 0 0 0 0 0 0 0
-185 -257 -254 -234 -288 -86 -289 -160 0 0 0 0 0 0 0 0 0 0 0 0 0 0 0 0 0 0 0 0 0 0 0 0 0 0 0 0 0 0 0 0 0 0 0
-309 -300 -319 -337 -332 -33 0 0 0 0 0 0 0 0 0 0 0 0 0 0 0 0 0 0 0 0 0 0 0 0 0 0 0 0 0 0 0 0 0 0 0 0 0
-346 -348 -323 -48 0 0 0 0 0 0 0 0 0 0 0 0 0 0 0 0 0 0 0 0 0 0 0 0 0 0 0 0 0 0 0 0 0 0 0 0 0 0 0
-393 -353 -360 -246 0 0 0 0 0 0 0 0 0 0 0 0 0 0 0 0 0 0 0 0 0 0 0 0 0 0 0 0 0 0 0 0 0 0 0 0 0 0 0
-312 -420 -382 0 0 0 0 0 0 0 0 0 0 0 0 0 0 0 0 0 0 0 0 0 0 0 0 0 0 0 0 0 0 0 0 0 0 0 0 0 0 0 0
Wind_Speed
5 9 12 12 13 14 15 16 17 16 18 18 18 17 17 19 20 21 20 19 20 21 22 22 23 23 23 23 23 25 25 26 26 27 27 27 27 27 27 27 26 26 25
8 11 11 12 11 13 14 16 16 16 17 17 16 16 17 19 20 21 20 19 20 21 22 22 22 22 22 23 24 25 26 26 26 27 27 28 28 28 27 27 26 26 26
8 11 11 12 12 12 13 13 15 14 15 15 13 15 17 18 20 19 18 19 21 22 22 23 24 25 25 25 25 25 26 26 26 26 26 27 27 27 27 27 27 27 26
7 11 11 11 10 11 11 11 12 11 13 14 12 15 17 17 18 18 18 19 21 23 23 25 26 27 27 26 25 25 25 26 26 26 26 26 26 27 27 27 27 27 27
4 7 10 9 9 10 11 10 10 10 11 11 13 13 16 16 17 17 17 19 21 22 23 24 25 25 25 25 25 25 25 25 25 25 25 25 25 26 27 27 27 27 27
4 7 9 10 9 10 11 10 10 7 11 12 10 11 13 14 16 15 16 19 19 21 22 23 24 24 24 24 24 24 24 25 25 25 25 25 25 26 27 27 27 27 26
2 6 10 11 10 10 10 9 9 6 9 9 8 8 10 14 12 13 14 15 18 20 21 23 23 24 24 24 24 24 24 24 25 25 25 25 25 26 26 27 27 27 27
2 2 9 10 11 10 7 4 6 3 5 6 7 7 10 13 15 11 12 16 18 19 21 22 23 24 24 23 23 23 23 24 25 25 25 25 26 26 26 27 27 27 26
2 2 3 7 8 9 9 3 4 6 5 6 4 5 10 10 7 10 13 15 16 18 20 20 21 22 22 22 23 23 23 24 25 25 25 25 25 25 26 26 27 27 26
3 4 3 4 11 14 3 3 4 6 5 4 3 4 5 8 9 10 12 14 16 18 19 20 20 20 21 22 23 23 23 25 25 25 25 25 25 25 25 26 26 26 26
4 4 6 7 3 5 5 3 1 3 3 3 16 9 7 7 10 10 12 13 16 17 17 19 19 20 21 23 25 24 25 25 24 25 25 26 25 24 24 24 25 25 25
5 7 12 7 7 2 2 2 2 2 5 27 27 5 5 4 7 10 12 13 14 15 16 18 19 20 22 24 25 25 25 26 27 26 26 25 24 23 22 23 23 23 24
11 7 4 8 8 5 4 1 1 2 21 24 9 1 7 7 8 8 10 11 13 14 16 17 19 21 23 23 25 25 26 26 27 27 26 25 24 23 21 21 22 22 23
10 15 15 13 12 3 2 3 10 29 31 32 30 13 4 5 7 9 11 11 12 13 15 17 19 21 22 24 25 25 26 27 27 27 27 26 25 24 20 20 21 21 22
17 21 19 15 4 5 20 31 31 31 31 23 2 5 5 6 8 9 10 11 13 13 15 17 19 21 23 23 25 26 27 27 28 29 28 28 25 24 20 21 22 21 22
16 8 7 32 30 30 29 30 30 11 13 2 5 5 7 7 8 8 10 11 13 14 15 17 19 20 22 23 24 25 27 28 29 29 29 27 26 24 23 23 24 24 22
32 31 32 29 29 29 29 30 27 19 12 6 4 6 7 6 7 8 9 11 12 13 15 17 19 21 22 23 24 26 28 27 26 28 28 27 26 25 25 26 26 25 23
30 30 29 28 30 29 28 23 1 4 4 7 6 6 7 7 8 8 9 10 11 12 14 16 19 21 22 24 24 27 27 23 24 26 27 27 26 26 27 27 27 27 26
29 29 29 30 28 15 1 10 6 5 4 4 6 6 7 7 7 7 8 9 10 12 14 16 19 20 22 23 24 27 25 20 23 26 27 27 27 28 28 27 28 28 30
24 22 22 17 14 11 6 5 4 4 4 5 5 7 6 6 6 7 7 8 9 11 14 17 19 21 22 25 25 29 24 19 22 27 27 26 30 29 28 28 29 30 30
22 19 18 17 14 9 3 4 5 5 4 5 5 5 5 6 6 6 6 8 9 12 15 17 19 21 24 26 27 28 25 22 24 27 27 29 30 27 28 29 30 30 31
23 20 16 15 14 13 9 5 2 4 4 5 5 5 4 5 5 5 6 7 9 13 15 17 19 21 23 27 29 29 31 28 26 25 27 29 25 29 29 31 32 31 32
23 20 17 14 12 11 8 3 6 7 9 6 4 3 4 4 4 5 6 8 10 13 15 17 20 22 25 27 27 28 32 32 35 29 26 28 26 30 29 34 32 32 31
18 10 8 7 7 7 6 5 6 3 2 6 3 4 4 2 4 5 6 8 12 14 16 17 18 20 25 30 31 26 27 29 35 38 31 28 31 30 33 35 34 33 32
11 10 7 7 7 7 10 8 6 5 6 5 3 1 2 4 5 6 8 10 13 15 17 19 20 24 26 30 31 32 32 31 30 34 40 35 32 32 33 34 34 32 30
6 6 6 9 12 8 9 7 6 5 3 5 3 3 3 5 8 9 10 12 15 17 19 20 22 27 28 29 29 31 32 33 34 34 36 38 39 37 32 34 31 29 27
Wind_Direction
166 135 124 117 109 104 100 96 91 84 81 78 73 66 64 68 68 70 65 59 54 52 50 49 47 48 46 45 45 45 42 38 38 35 33 29 26 24 23 22 18 15 11
139 134 131 124 117 109 105 102 96 88 82 78 74 68 67 71 72 71 67 59 57 56 55 48 44 43 48 52 52 49 44 40 38 36 33 31 29 25 21 19 17 15 13
135 137 135 128 121 115 110 104 97 87 81 77 70 70 74 74 73 68 64 62 62 58 49 49 49 49 62 63 57 47 43 41 39 35 31 28 27 24 21 19 17 14 13
133 132 134 131 124 116 110 104 96 83 83 79 73 76 79 76 74 70 67 66 63 61 55 53 52 54 60 62 54 48 45 41 35 31 26 23 20 19 17 17 17 16 14
142 139 141 137 130 119 112 102 93 86 80 76 78 79 81 78 76 73 69 67 66 61 56 53 53 54 56 55 50 45 40 36 31 25 22 18 15 14 14 13 11 10 8
141 135 141 140 137 128 118 113 98 89 83 82 80 80 80 80 80 75 69 67 62 58 53 51 50 51 54 52 48 43 38 34 28 23 19 17 14 10 10 9 7 5 3
136 145 146 137 129 121 117 114 99 91 83 85 80 78 82 84 82 75 64 58 57 56 52 50 48 51 52 50 47 41 35 28 24 20 16 13 12 8 7 7 6 4 1
97 189 136 133 121 109 109 122 99 98 82 85 83 81 85 88 84 70 58 54 52 53 51 51 50 49 50 44 38 33 24 17 14 14 11 10 9 7 6 2 2 1 359
44 109 81 133 117 123 114 127 91 93 95 86 88 89 87 82 73 63 57 51 46 46 47 48 45 43 37 33 28 20 17 15 12 11 8 7 8 7 4 2 1 1 2
24 105 86 134 137 114 158 122 112 86 98 112 108 104 95 78 66 55 45 36 37 45 43 44 40 30 24 17 17 16 17 12 12 11 10 9 9 8 8 7 6 5 4
344 108 111 133 159 105 92 89 98 115 124 141 203 92 82 67 61 43 38 39 43 36 32 29 28 24 18 15 14 12 11 9 12 11 8 5 8 10 11 10 8 7 6
76 82 111 124 94 209 214 209 179 147 209 169 143 89 66 24 26 43 42 35 32 30 24 23 21 18 13 13 11 9 7 7 6 7 6 5 9 10 11 11 9 8 5
99 112 142 116 113 216 231 213 113 206 203 199 225 239 65 45 35 10 8 15 26 23 20 20 14 9 7 8 6 6 4 2 1 2 2 3 3 6 9 9 9 6 3
102 111 116 114 121 212 237 107 213 186 179 167 154 98 41 350 359 9 23 24 23 24 24 16 14 11 9 8 5 3 0 358 358 358 358 356 355 357 2 3 3 2 359
113 116 122 110 125 213 193 175 161 155 163 141 66 71 19 12 2 5 33 31 27 22 18 16 13 9 7 5 3 1 359 358 357 355 352 350 351 352 356 356 354 355 353
120 125 146 163 163 155 151 159 157 192 241 287 76 62 58 63 52 37 32 31 25 23 18 11 10 8 6 5 4 1 359 357 356 354 354 354 354 355 355 351 347 346 347
167 187 170 171 165 161 156 165 152 128 110 86 18 67 60 41 52 58 44 32 26 19 15 12 9 7 5 3 1 358 355 356 359 359 359 358 356 354 350 346 342 341 339
145 151 168 181 174 163 158 165 265 282 69 89 70 44 62 72 67 50 37 30 25 19 13 8 6 2 0 358 357 353 353 360 2 0 358 358 355 349 345 341 338 337 332
154 159 164 179 159 129 284 107 94 84 65 51 21 67 68 72 52 37 39 32 25 19 13 8 2 360 358 356 353 350 352 356 357 355 352 351 349 345 341 340 336 333 328
151 147 147 133 123 114 94 77 63 56 55 19 56 74 53 48 42 39 37 32 30 18 9 2 1 359 357 353 351 347 350 353 350 348 350 348 343 341 340 338 335 332 327
152 145 144 141 133 124 102 89 92 95 50 44 39 33 51 46 42 44 39 32 22 10 2 1 358 356 352 351 349 346 346 343 342 343 343 341 340 342 339 336 332 329 323
158 156 148 149 147 148 141 127 33 92 21 4 17 28 47 36 39 46 37 23 11 360 358 354 353 352 351 349 348 346 340 338 339 337 336 337 340 339 335 332 330 326 323
165 161 159 157 155 155 151 136 318 324 327 345 360 25 11 23 36 24 19 10 360 353 352 351 350 351 350 348 348 345 340 335 335 338 335 334 334 334 333 330 327 324 321
166 160 164 170 176 175 177 182 176 189 308 325 324 342 355 19 11 6 2 360 351 350 350 348 349 345 346 341 340 340 339 336 333 330 334 331 329 329 329 329 325 322 319
170 171 173 179 185 186 180 191 207 270 309 329 310 309 344 354 354 355 350 348 345 347 343 343 346 347 340 338 336 334 332 331 330 326 325 327 328 326 326 328 325 323 323
194 196 195 188 188 187 186 204 221 242 263 303 289 266 307 334 338 341 343 343 346 352 337 337 337 338 335 336 337 332 331 330 329 328 325 324 324 326 325 328 328 327 328